Location: Clanezzo
(45.7500°N, 9.6000°E)
Time: 11:38:48
(UTC+00:00)

Cosmos 2084 Rocket - Visible Passes

Search period start: 22 September 2021 00:00
Search period end: 02 October 2021 00:00
Orbit: 513 x 666 km, 62.8° (Epoch: 21 September)

Date Brightness Start Highest point End Pass type
(mag) Time Alt. Az. Time Alt. Az. Time Alt. Az.
22 Sep 6.0 02:24:25 11° NNW 02:24:25 11° NNW 02:25:09 10° N visible
25 Sep 6.2 04:29:36 10° NNE 04:30:13 10° NNE 04:30:49 10° NNE visible
26 Sep 6.0 04:36:27 10° N 04:38:29 13° NNE 04:40:32 10° NE visible
27 Sep 5.9 04:43:52 10° NNW 04:46:41 18° NNE 04:49:35 10° ENE visible
29 Sep 6.3 03:21:39 10° NNE 03:22:17 10° NNE 03:22:56 10° NNE visible
30 Sep 6.1 03:28:32 10° N 03:30:33 13° NNE 03:32:38 10° NE visible
01 Oct 6.0 03:35:56 10° NNW 03:38:46 18° NNE 03:41:39 10° ENE visible
